Regional Weather Roundup
Issued by NWS

Home | Current Version | Previous Version | Text Only | Print | Product List | Glossary Off
Versions: 1 2 3 4 5 6 7 8 9 10 11 12 13 14 15 16 17 18 19 20 21 22 23 24 25 26 27 28 29 30 31 32 33 34 35 36 37 38 39 40 41 42 43 44 45 46 47 48 49 50

000
ASUS45 KCYS 242210
RWRWY

WYOMING REGIONAL WEATHER ROUNDUP
NATIONAL WEATHER SERVICE CHEYENNE WY
400 PM MDT TUE APR 24 2018

NOTE:  "FAIR" INDICATES FEW OR NO CLOUDS BELOW 12,000 FEET
WITH NO SIGNIFICANT WEATHER AND/OR OBSTRUCTIONS TO VISIBILITY.

WYZ001-242300-
YELLOWSTONE NATIONAL PARK

CITY           SKY/WX    TMP DP  RH WIND       PRES   REMARKS
LK YELLOWSTONE   N/A     39   9  29 E6        30.44F WCI  35
W YELLOWSTONE  NOT AVBL

$$
WYZ002>013-054>058-071-098>099-242300-
NORTHERN WYOMING

CITY           SKY/WX    TMP DP  RH WIND       PRES   REMARKS
JACKSON        FAIR      51  21  30 VRB7      30.36F
CODY           FAIR      49  19  30 VRB7      30.42F
GREYBULL       FAIR      52  27  38 W7        30.42F
WORLAND        PTSUNNY   50  25  37 VRB6      30.43F
SHERIDAN       FAIR      51  25  36 VRB3      30.43F
BUFFALO        FAIR      47  20  34 CALM      30.43F
GILLETTE       FAIR      48  27  44 N10       30.43F
HULETT         MOCLDY    45  25  45 NE5       30.45F
NEWCASTLE      FAIR      45  21  39 N13G22    30.43F

$$
WYZ014>020-022>026-101>103-242300-
CENTRAL WYOMING

CITY           SKY/WX    TMP DP  RH WIND       PRES   REMARKS
BIG PINEY      PTSUNNY   49  20  31 W8        30.38F
PINEDALE       CLOUDY    46  21  36 W8        30.39S
DUBOIS         FAIR      43  23  45 SE9       30.39F
LANDER         PTSUNNY   43  23  45 E3        30.42F
RIVERTON       CLOUDY    44  22  41 VRB3      30.44F
CASPER         CLOUDY    41  24  51 NE8       30.44F
DOUGLAS        CLOUDY    40  28  62 N13       30.44F WCI  32

$$
WYZ021-027>030-104>119-242300-
SOUTHERN WYOMING

CITY           SKY/WX    TMP DP  RH WIND       PRES   REMARKS
EVANSTON       FAIR      50  22  33 E13G20    30.34F
KEMMERER       FAIR      50  18  27 E6        30.37F
FORT BRIDGER   FAIR      50  19  29 E7        30.39F
ROCK SPRINGS   PTSUNNY   46  18  32 NE18G24   30.39S
DIXON          FAIR      49  20  32 NE22G29   30.34S
RAWLINS        CLOUDY    38  19  46 N12       30.41F WCI  30
LARAMIE        CLOUDY    36  21  54 NE13      30.35F WCI  27
CHEYENNE       CLOUDY    37  25  61 N15G25    30.38S WCI  28
TORRINGTON     CLOUDY    43  28  55 NW17G23   30.40F
PINE BLUFFS    CLOUDY    37  28  70 MISG      30.40S

$$



USA.gov is the U.S. government's official web portal to all federal, state and local government web resources and services.